{"data":{"norad_id":66090,"epoch":"2026-05-25T03:23:21.883200Z","epoch_age_seconds":76938,"freshness":"FRESH","line1":"1 66090U 25236E   26145.14122550  .00017116  00000+0  58841-3 0  9991","line2":"2 66090  53.1591 108.4752 0001166 120.6500 239.4616 15.30215412 34655","mean_motion":15.30215412,"eccentricity":0.0001166,"inclination_deg":53.1591,"raan_deg":108.4752,"arg_perigee_deg":120.65,"mean_anomaly_deg":239.4616,"bstar":0.00058841,"rev_number":3465,"period_min":94.104397897673,"perigee_km":474.36995686588,"apogee_km":475.96814783729,"semimajor_km":6853.3060523516,"source":"CELESTRAK","updated_at":"2026-05-25T13:38:21.027347Z"}}